DW8219 Weather Reports


Display with metric or nautical units.
time (UTC)temp
F
wind
direction
speed
MPH
gust
MPH
rain 1hr
in
rain 24hr
in
rain mn
in
humidity
%
barometer
mb
20260904071904 73 326 0.0 1.0 0.01 0.04 0.01 88 1008.5
20260904070404 73 329 0.0 1.0 0.01 0.05 0.01 87 1008.2
20260904065905 73 300 0.0 1.0 0.01 0.05 0.01 86 1008.2
20260904065404 73 242 0.0 1.0 0.01 0.06 0.01 85 1007.9
20260904064904 74 205 1.0 6.0 0.01 0.06 0.01 84 1008.2
20260904064404 74 241 0.0 12.0 0.00 0.07 0.00 83 1008.7
20260904063904 75 250 7.0 16.0 0.00 0.08 0.00 82 1009.3
20260904063405 76 246 9.0 17.0 0.00 0.08 0.00 81 1009.3
20260904062404 78 263 10.0 20.0 0.00 0.09 0.00 81 1009.6
20260904061904 78 279 8.0 15.0 0.00 0.10 0.00 81 1009.5
20260904061405 77 228 0.0 3.0 0.00 0.10 0.00 81 1009.5
20260904060904 77 223 1.0 3.0 0.00 0.10 0.00 81 1009.4
20260904055904 77 254 0.0 2.0 0.00 0.10 0.00 81 1009.4
20260904054904 77 202 0.0 0.0 0.00 0.11 0.00 82 1009.4
20260904054404 77 203 0.0 0.0 0.00 0.11 0.00 81 1009.6
20260904053906 77 203 0.0 0.0 0.00 0.11 0.00 81 1009.7
20260904053404 77 202 0.0 0.0 0.00 0.12 0.00 80 1009.8
20260904052404 78 202 0.0 0.0 0.00 0.13 0.00 79 1009.8
20260904051904 78 202 0.0 0.0 0.00 0.14 0.00 79 1009.7
20260904050906 78 201 0.0 3.0 0.00 0.14 0.00 79 1009.5
20260904050404 78 199 0.0 2.0 0.00 0.15 0.00 78 1009.5
20260904045904 79 199 1.0 3.0 0.00 0.15 0.00 78 1009.5
20260904045404 79 200 1.0 3.0 0.00 0.16 0.00 78 1009.6
20260904044405 79 213 0.0 0.0 0.00 0.18 0.00 79 1009.8
20260904043404 79 226 0.0 2.0 0.00 0.19 0.00 78 1009.9
20260904042904 79 232 0.0 2.0 0.00 0.19 0.00 78 1010.0
20260904040904 79 253 0.0 0.0 0.00 0.19 0.00 78 1010.3
20260904040405 79 252 0.0 0.0 0.00 0.19 0.00 78 1010.3
20260904035904 79 253 0.0 0.0 0.00 0.19 0.19 78 1010.4
20260904035406 79 253 0.0 0.0 0.00 0.19 0.19 78 1010.3
20260904034904 79 254 0.0 0.0 0.00 0.19 0.19 77 1010.2
20260904034405 79 254 0.0 2.0 0.00 0.19 0.19 77 1010.2
20260904033405 79 237 0.0 2.0 0.00 0.19 0.19 77 1010.1
20260904032905 79 239 0.0 2.0 0.00 0.19 0.19 77 1010.2
20260904032403 79 247 0.0 0.0 0.00 0.19 0.19 76 1009.9
20260904031905 79 214 0.0 0.0 0.00 0.19 0.19 76 1009.8
20260904031404 79 216 0.0 0.0 0.00 0.19 0.19 76 1009.9
20260904030903 80 222 0.0 1.0 0.00 0.19 0.19 76 1010.1
20260904030404 80 221 0.0 1.0 0.00 0.19 0.19 75 1010.1
20260904025404 80 243 1.0 5.0 0.00 0.19 0.19 75 1010.3
20260904024904 80 241 0.0 1.0 0.00 0.19 0.19 75 1010.3
20260904024403 80 228 0.0 2.0 0.00 0.19 0.19 74 1010.4
20260904023904 80 227 0.0 1.0 0.00 0.19 0.19 74 1010.5
20260904022904 80 242 2.0 6.0 0.00 0.19 0.19 73 1010.7
20260904022404 80 246 1.0 2.0 0.00 0.19 0.19 73 1010.7
20260904021405 80 235 0.0 2.0 0.00 0.19 0.19 73 1010.9
20260904020904 81 242 2.0 7.0 0.00 0.19 0.19 73 1011.0
20260904015904 81 237 1.0 2.0 0.00 0.19 0.19 73 1011.1
20260904015404 81 234 4.0 8.0 0.00 0.19 0.19 73 1011.1
20260904014904 81 234 1.0 3.0 0.00 0.19 0.19 73 1011.1
20260904014405 81 237 2.0 8.0 0.00 0.19 0.19 73 1011.3
20260904013904 81 230 2.0 5.0 0.00 0.19 0.19 73 1011.3
20260904013404 80 234 0.0 0.0 0.00 0.19 0.19 73 1011.2
20260904012404 80 222 0.0 0.0 0.00 0.19 0.19 73 1010.9
20260904011904 80 233 0.0 0.0 0.00 0.19 0.19 73 1011.0
20260904011405 81 234 0.0 0.0 0.00 0.19 0.19 73 1011.0
20260904010904 81 233 0.0 0.0 0.00 0.19 0.19 73 1011.0
20260904010405 81 232 0.0 0.0 0.00 0.19 0.19 72 1010.8
20260904004904 81 226 0.0 0.0 0.00 0.19 0.19 73 1010.8
20260904003904 81 222 0.0 0.0 0.00 0.19 0.19 72 1010.6
20260904002404 81 238 0.0 5.0 0.00 0.19 0.19 72 1010.9
20260904001904 81 244 0.0 2.0 0.00 0.19 0.19 71 1010.9
20260904001404 81 264 0.0 1.0 0.00 0.19 0.19 71 1010.8
20260904000404 81 228 1.0 2.0 0.00 0.19 0.19 71 1010.6
20260903235406 82 220 0.0 1.0 0.00 0.19 0.19 70 1010.3
20260903234905 82 221 0.0 1.0 0.00 0.19 0.19 69 1010.3
20260903234405 82 220 0.0 1.0 0.00 0.19 0.19 69 1010.4
20260903233904 82 227 1.0 2.0 0.00 0.19 0.19 69 1010.5
20260903233404 82 217 0.0 2.0 0.00 0.19 0.19 69 1010.4
20260903232904 83 234 0.0 1.0 0.00 0.19 0.19 68 1010.2
20260903231905 83 234 0.0 1.0 0.00 0.19 0.19 67 1010.2
20260903231406 83 235 0.0 1.0 0.00 0.19 0.19 67 1010.3
20260903230905 83 242 0.0 1.0 0.00 0.19 0.19 67 1010.3
20260903230404 83 242 0.0 1.0 0.00 0.19 0.19 66 1010.3
20260903225905 84 241 1.0 2.0 0.00 0.19 0.19 66 1010.3
20260903225405 84 217 0.0 1.0 0.00 0.19 0.19 66 1010.4
20260903224906 84 217 0.0 1.0 0.00 0.19 0.19 65 1010.4
20260903224404 84 265 0.0 1.0 0.00 0.19 0.19 66 1010.4
20260903223905 83 271 0.0 1.0 0.00 0.19 0.19 67 1010.5
20260903223405 83 271 0.0 1.0 0.00 0.19 0.19 67 1010.6
20260903222905 84 238 0.0 0.0 0.00 0.19 0.19 67 1010.6
20260903222404 84 238 0.0 1.0 0.00 0.19 0.19 66 1010.6
20260903221905 84 237 1.0 7.0 0.00 0.19 0.19 65 1010.5
20260903220905 85 294 0.0 2.0 0.00 0.19 0.19 65 1010.6
20260903220405 85 263 1.0 3.0 0.00 0.19 0.19 64 1010.4
20260903215904 85 225 1.0 2.0 0.00 0.19 0.19 64 1010.4
20260903215405 85 271 1.0 2.0 0.00 0.19 0.19 65 1010.3
20260903214904 85 247 3.0 9.0 0.00 0.19 0.19 63 1010.3
20260903214404 85 266 1.0 3.0 0.00 0.19 0.19 64 1010.2
20260903213905 85 319 0.0 7.0 0.00 0.19 0.19 64 1010.3
20260903213405 86 269 2.0 9.0 0.00 0.19 0.19 63 1010.4
20260903212906 86 259 3.0 8.0 0.00 0.19 0.19 63 1010.3
20260903212405 86 275 1.0 9.0 0.00 0.19 0.19 64 1010.4
20260903211904 86 272 3.0 9.0 0.00 0.19 0.19 63 1010.4
20260903211404 86 283 3.0 9.0 0.00 0.19 0.19 63 1010.4
20260903210904 86 275 5.0 9.0 0.00 0.19 0.19 62 1010.4
20260903205904 86 264 1.0 12.0 0.00 0.19 0.19 64 1010.5
20260903205405 86 286 1.0 10.0 0.00 0.19 0.19 64 1010.5
20260903203903 86 305 2.0 13.0 0.00 0.19 0.19 63 1010.3
20260903203404 87 221 7.0 14.0 0.00 0.19 0.19 61 1010.5
20260903202904 86 261 1.0 8.0 0.00 0.19 0.19 63 1010.5
20260903202404 86 251 2.0 10.0 0.00 0.19 0.19 63 1010.4
20260903201905 85 275 2.0 10.0 0.00 0.19 0.19 64 1010.3
20260903201405 84 272 0.0 9.0 0.00 0.19 0.19 66 1010.5
20260903200904 84 271 6.0 10.0 0.00 0.19 0.19 64 1010.5
20260903200404 84 246 1.0 9.0 0.00 0.19 0.19 65 1010.6
20260903195905 85 221 2.0 10.0 0.00 0.19 0.19 64 1010.7
20260903195404 86 260 2.0 12.0 0.00 0.19 0.19 64 1010.7
20260903194903 86 287 3.0 12.0 0.00 0.19 0.19 62 1010.6
20260903194404 86 254 3.0 12.0 0.00 0.19 0.19 64 1010.6
20260903193904 86 285 5.0 12.0 0.00 0.20 0.19 62 1010.7
20260903192905 87 209 2.0 3.0 0.00 0.20 0.19 63 1010.7
20260903192404 86 252 2.0 9.0 0.00 0.21 0.19 63 1010.7
20260903191905 86 264 2.0 9.0 0.00 0.27 0.19 65 1010.8
20260903191404 85 254 1.0 3.0 0.00 0.28 0.19 66 1011.0
20260903190404 84 230 1.0 6.0 0.00 0.31 0.19 66 1011.1
20260903185904 84 268 2.0 12.0 0.00 0.31 0.19 66 1011.2
20260903184904 84 276 2.0 9.0 0.00 0.32 0.19 65 1011.2
20260903184404 85 268 1.0 10.0 0.00 0.32 0.19 69 1011.3
20260903183904 85 232 5.0 10.0 0.00 0.33 0.19 66 1011.3
20260903182905 84 268 4.0 12.0 0.00 0.36 0.19 66 1011.4
20260903182404 85 266 3.0 10.0 0.00 0.36 0.19 64 1011.4
20260903181905 84 227 3.0 10.0 0.00 0.36 0.19 67 1011.5
20260903180905 85 223 2.0 9.0 0.00 0.36 0.19 67 1011.4
20260903180404 84 304 1.0 10.0 0.00 0.36 0.19 66 1011.4
20260903175904 84 167 1.0 8.0 0.00 0.36 0.19 65 1011.5
20260903175404 85 227 1.0 7.0 0.00 0.36 0.19 65 1011.6
20260903174904 83 217 2.0 9.0 0.00 0.36 0.19 68 1011.7
20260903174404 83 231 3.0 12.0 0.00 0.36 0.19 68 1011.7
20260903173404 83 320 3.0 9.0 0.00 0.36 0.19 69 1012.0
20260903172405 83 248 7.0 12.0 0.00 0.36 0.19 68 1012.3
20260903171405 82 267 4.0 9.0 0.00 0.36 0.19 68 1012.3
20260903170405 82 295 8.0 13.0 0.00 0.36 0.19 68 1012.4
20260903165905 82 272 5.0 12.0 0.00 0.36 0.19 71 1012.6
20260903165405 82 236 7.0 14.0 0.00 0.36 0.19 70 1012.6
20260903164905 80 248 5.0 13.0 0.00 0.36 0.19 72 1012.5
20260903164404 80 234 6.0 13.0 0.00 0.36 0.19 72 1012.5
20260903163904 80 257 3.0 12.0 0.00 0.36 0.19 72 1012.6
20260903163405 80 262 5.0 13.0 0.00 0.36 0.19 73 1012.7
20260903162905 80 229 8.0 14.0 0.00 0.36 0.19 74 1012.7
20260903162405 79 238 6.0 12.0 0.00 0.36 0.19 75 1012.6
20260903161905 79 220 2.0 10.0 0.00 0.36 0.19 75 1012.6
20260903161404 80 254 5.0 12.0 0.00 0.36 0.19 73 1012.6
20260903160905 80 227 6.0 12.0 0.00 0.36 0.19 75 1012.8
20260903154906 79 236 4.0 9.0 0.00 0.36 0.19 76 1013.2
20260903153904 78 278 4.0 9.0 0.00 0.36 0.19 79 1013.4
20260903152905 77 232 8.0 13.0 0.00 0.36 0.19 79 1013.4
20260903152404 77 246 6.0 13.0 0.00 0.36 0.19 82 1013.2
20260903151904 76 249 3.0 12.0 0.00 0.36 0.19 82 1013.2
20260903151404 76 230 5.0 10.0 0.00 0.36 0.19 82 1013.3
20260903150904 75 251 6.0 9.0 0.00 0.36 0.19 84 1013.2
20260903145404 75 246 6.0 12.0 0.00 0.36 0.19 84 1013.1
20260903144904 75 241 3.0 9.0 0.00 0.36 0.19 85 1013.3
20260903144404 74 243 1.0 7.0 0.00 0.36 0.19 86 1013.3
20260903143904 74 269 0.0 8.0 0.00 0.36 0.19 87 1013.3
20260903143404 74 234 3.0 7.0 0.00 0.36 0.19 87 1013.4
20260903142904 73 245 5.0 9.0 0.00 0.36 0.19 87 1013.5
20260903142404 73 229 4.0 8.0 0.00 0.36 0.19 87 1013.5
20260903141904 73 263 2.0 6.0 0.00 0.36 0.19 88 1013.4
20260903140904 73 203 4.0 9.0 0.00 0.36 0.19 88 1013.5
20260903140404 73 232 3.0 10.0 0.00 0.36 0.19 90 1013.4
20260903135404 72 201 3.0 12.0 0.00 0.36 0.19 89 1013.4
20260903134404 72 210 2.0 8.0 0.00 0.36 0.19 91 1013.5
20260903133904 71 188 4.0 8.0 0.00 0.36 0.19 90 1013.4
20260903133404 71 208 3.0 9.0 0.00 0.36 0.19 91 1013.5
20260903132404 71 198 2.0 9.0 0.00 0.36 0.19 92 1013.8
20260903131404 70 204 1.0 2.0 0.00 0.36 0.19 93 1013.6
20260903130904 70 206 3.0 7.0 0.00 0.36 0.19 93 1013.6
20260903130405 70 232 0.0 0.0 0.00 0.36 0.19 94 1013.5
20260903125905 69 178 0.0 0.0 0.00 0.36 0.19 93 1013.7
20260903124904 69 178 0.0 0.0 0.00 0.36 0.19 94 1013.8
20260903124404 69 176 0.0 0.0 0.00 0.36 0.19 95 1013.7
20260903123404 69 217 0.0 0.0 0.00 0.36 0.19 95 1013.8
20260903122904 69 217 0.0 0.0 0.00 0.36 0.19 95 1013.9
20260903122404 69 217 0.0 0.0 0.00 0.36 0.19 95 1013.8
20260903121904 68 218 0.0 0.0 0.00 0.36 0.19 96 1013.7
20260903121404 68 217 0.0 0.0 0.00 0.36 0.19 96 1013.6
20260903120904 68 217 0.0 0.0 0.00 0.36 0.19 95 1013.8
20260903120405 68 217 0.0 0.0 0.00 0.36 0.19 96 1013.5
20260903115906 68 217 0.0 0.0 0.00 0.36 0.19 96 1013.7
20260903115404 68 258 0.0 0.0 0.00 0.36 0.19 95 1013.9
20260903114904 68 258 0.0 0.0 0.00 0.36 0.19 96 1013.9
20260903114405 68 258 0.0 0.0 0.00 0.36 0.19 95 1013.9
20260903113905 68 258 0.0 0.0 0.00 0.36 0.19 96 1014.0
20260903113404 68 258 0.0 1.0 0.00 0.36 0.19 96 1014.0
20260903112905 68 259 0.0 3.0 0.00 0.36 0.19 96 1013.8
20260903112405 68 218 0.0 1.0 0.00 0.36 0.19 96 1013.6
20260903111904 68 216 1.0 3.0 0.00 0.36 0.19 96 1013.7
20260903111405 67 260 4.0 8.0 0.00 0.36 0.19 96 1013.9
20260903110905 67 242 1.0 9.0 0.00 0.36 0.19 96 1013.8
20260903110404 67 230 3.0 9.0 0.00 0.36 0.19 96 1013.7
20260903105905 67 216 2.0 7.0 0.00 0.36 0.19 96 1013.8
20260903105405 67 240 0.0 0.0 0.00 0.36 0.19 96 1013.7
20260903104404 68 221 0.0 0.0 0.00 0.36 0.19 96 1013.8
20260903103905 68 228 0.0 0.0 0.00 0.36 0.19 96 1013.9
20260903103405 68 249 0.0 0.0 0.00 0.36 0.19 96 1014.0
20260903102905 68 249 0.0 1.0 0.00 0.36 0.19 96 1014.0
20260903100906 68 241 0.0 1.0 0.00 0.36 0.19 96 1013.9
20260903100404 68 240 2.0 5.0 0.00 0.36 0.19 96 1013.6
20260903095905 68 183 0.0 0.0 0.00 0.36 0.19 96 1013.6
20260903095404 68 182 0.0 0.0 0.01 0.36 0.19 96 1013.4
20260903094906 68 183 0.0 0.0 0.01 0.36 0.19 96 1013.5
20260903094405 68 182 0.0 0.0 0.01 0.36 0.19 96 1013.5
20260903093905 68 183 0.0 0.0 0.01 0.36 0.19 96 1013.4
20260903093405 68 182 0.0 0.0 0.01 0.36 0.19 96 1013.0
20260903092906 68 217 0.0 0.0 0.01 0.36 0.19 96 1013.4
20260903091904 68 250 3.0 7.0 0.02 0.36 0.19 96 1013.8
20260903090405 68 213 2.0 6.0 0.02 0.36 0.19 96 1013.5
20260903085404 68 230 1.0 6.0 0.01 0.35 0.18 96 1013.5
20260903084903 68 211 2.0 6.0 0.01 0.35 0.18 96 1013.6
20260903084404 68 222 2.0 3.0 0.01 0.35 0.18 96 1013.0
20260903083904 68 189 1.0 3.0 0.01 0.35 0.18 96 1013.0
20260903083404 68 182 1.0 10.0 0.01 0.35 0.18 96 1012.7
20260903082904 68 165 3.0 8.0 0.02 0.35 0.18 96 1013.9
20260903082404 68 196 4.0 8.0 0.02 0.36 0.18 96 1013.9
20260903081904 68 202 3.0 9.0 0.01 0.35 0.17 96 1014.2
20260903081404 68 216 1.0 6.0 0.01 0.35 0.17 96 1014.4
20260903080404 68 234 2.0 5.0 0.02 0.35 0.17 96 1014.5
20260903075905 68 226 1.0 5.0 0.02 0.35 0.17 96 1014.5
20260903075404 68 210 2.0 3.0 0.03 0.35 0.17 96 1014.4
20260903074904 68 224 2.0 5.0 0.03 0.35 0.17 96 1014.2
20260903074404 67 215 2.0 5.0 0.05 0.35 0.17 96 1014.1
20260903073903 67 224 1.0 5.0 0.06 0.35 0.17 96 1013.8
20260903073404 67 174 2.0 5.0 0.06 0.35 0.17 96 1014.1
20260903072904 67 185 1.0 3.0 0.06 0.34 0.16 96 1014.2
20260903072404 67 167 1.0 5.0 0.06 0.34 0.16 96 1014.1